Terminal Aerodrome Forecast
Issued by NWS

Home | Current Version | Previous Version | Text Only | Print | Product List | Glossary On
Versions: 1 2 3 4 5 6 7 8 9 10 11 12 13 14 15 16 17
986
FTUS43 KEAX 260427 AAA
TAFSTJ
TAF AMD
KSTJ 260427Z 2604/2624 17013G23KT P6SM VCTS FEW060CB SCT110
     FM260600 18008KT P6SM VCTS BKN035CB
     FM261000 18008KT P6SM OVC015
     FM261700 14010KT P6SM SCT020
     FM262000 15013G22KT P6SM VCTS BKN035CB=

USA.gov is the U.S. government's official web portal to all federal, state and local government web resources and services.